YAOGAN-30 P (44450 NORAD) Tracking and Keplerian Element Data

This shows tracking and keplerian element data for the satellite.

Feedback or suggestion? Click here.




ElementValue
Catalog44450
NameYAOGAN-30 P
Epoch Orbit327
Epoch Day229.12400216
Epoch Year2019
RAAN207.1567
Inclination34.9953
Eccentricity0.0009667
Argument of Perigee130.8755
Mean Anonmoly229.2717
Mean Motion14.89663553
Decay Rate2.62E-06
L11 44450U 19045B 19229.12400216 .00000262 00000-0 29643-4 0 9993
L22 44450 34.9953 207.1567 0009667 130.8755 229.2717 14.89663553 3279

Live tracking and technical data element details for YAOGAN-30 P (NORAD 44450). YAOGAN-30 P can be tracked NOW for your location showing map with azimuth and elevation plus other details from your city location.

Track the satellite on the map from your city or location and see movement details for azimuth, elevation, latitude, longitude, range, height, and movement on the map or in text.







IsCatalogInMostPopularTable: catalog: 44450, numindb: 5
Update: records affected: 1



GetName: 44450 YAOGAN-30 P

Hit Count: updated at: Wed, 21 Aug 2019 12:48:25 GMT